STARLINK-2342, 47883

Orbit data source: Space-Track

STARLINK-2342, 47883 is a payload satellite owned by SpaceX/Seattle (US) in LEO that was launched on Sun, 14 Mar 2021 UTC via an FALCON 9 launch vehicle from the Air Force Eastern Test Range (AFETR). Payload-class satellites include a variety of spacecraft equipped with specific instruments for various scientific and technological missions. These include communications satellites like Starlink; space stations such as the ISS; scientific satellites like the Hubble; Earth observation satellites from companies like Planet Labs, Umbra, and HawkEye 360; GPS; miniature CubeSats for education and research; and military/defense satellites.

Not visible in the next 10 days
Identifier
47883, 2021-021Z
Orbit
LEO
Country
Flag of USUS
Related business
Manufacturer
SpaceX/Seattle
Mission
Partially operational Commercial Communications
Bus & Motor
STARLINK, Unknown motor
Mass
260 kg wet, ~248 kg dry
Launch date (UTC)
2021-03-14 (5 years ago)
Launch vehicle
FALCON 9
Launch site
Air Force Eastern Test Range (AFETR)
Object type
Payload
Rocket body
Debris
Shape & HBR
Box + 1 Pan, 10.1 m
Radar Cross Section
13.562 m², Large (>1 m²)

Expand to show TLE details & history
Last TLE update: 2 days ago

TLE from 2 days ago
0 STARLINK-2342
1 47883U 21021Z   26171.41668980  .00138675  00000-0  65874-3 0  9998
2 47883  53.1536 131.8759 0001671 142.1149 320.6668 15.82028260  5961
Epoch: 2026-06-20T10:00Z
TLE epoch observation values (Epoch: 2026-06-20T10:00:01.998Z)
Latitude
51.45581°
Longitude
-176.03807°
Altitude
329.968 km
Speed
7.717 km/s
True Right ascension
16h 10m 24s
True Declination
51° 16' 39"
Sunlit
Object was in daylight at epoch
Visualization orbit readout
Latitude
Unknown
Longitude
Unknown
Altitude
Unknown
Speed
Unknown
Apparent Right ascension
Unknown
Apparent Declination
Unknown
Sunlit
N/A
Visualization observer readout
Local Sidereal Time
21:25:49
Azimuth
Unknown
Elevation
Unknown
Doppler factor
Unknown
Orbital elements
Apogee altitude
326.089 km
Perigee altitude
323.849 km
Semi-major axis
6,703.106 km
Eccentricity
0.00017
Inclination
53.1536°
RAAN
131.8759°
Arg. of periapsis
142.1149°
True anomaly
320.65466°
Mean anomaly
320.6668°
Eccentric anomaly
320.66073°
Mean motion
3.95484 °/min
Orbital period
91.03 mins
BSTAR
0.00065874
Loading maneuver chart data...
Computing Atmospheric mass density...

Documentation

Showing up to 5 results
|